Tracking 30995 objects as of 6-Jul-2025
HD Live streaming from Space Station
objects crossing your sky now

STARLINK-11334

Track STARLINK-11334 now!
10-day predictions
STARLINK-11334 is classified as:


NORAD ID: 61250
Int'l Code: 2024-175H
Perigee: 366.0 km
Apogee: 367.8 km
Inclination: 53.2 °
Period: 91.7 minutes
Semi major axis: 6737 km
RCS: Unknown
Launch date: September 25, 2024
Source: United States (US)
Launch site: AIR FORCE WESTERN TEST RANGE (AFWTR)
Your satellite tracking list
Your tracking list is empty




NASA's NSSDC Master Catalog

Two Line Element Set (TLE):
1 61250U 24175H   25186.28403105 -.00000892  00000-0 -25077-5 0  9995
2 61250  53.1592 195.5419 0001323  72.0152 288.1010 15.69698647 44516
Source of the keplerian elements: AFSPC